Weather History for Seward, AK

Change the Weather History Date:

Sunday, February 10, 2013

  Actual Average Record
Temperature  
Mean Temperature 36 °F -  
Max Temperature 39 °F 33 °F 49 °F (1980)
Min Temperature 33 °F 23 °F -1 °F (1984)
Degree Days  
Heating Degree Days 29    
Moisture  
Dew Point 33 °F    
Average Humidity 92    
Maximum Humidity 100    
Minimum Humidity 70    
Precipitation  
Precipitation 0.64 in - - ()
Sea Level Pressure  
Sea Level Pressure 29.32 in    
Wind  
Wind Speed 7 mph (South)    
Max Wind Speed 22 mph    
Max Gust Speed 32 mph    
Visibility 5 miles    
Events Rain , Snow    
Averages and records for this station are not official NWS values.
T = Trace of Precipitation, MM = Missing Value Source: NWS Daily Summary

Daily Weather History Graph

Daily Weather History Graph

Search for Another Location

Airport:

Trip Planner

Search our weather history database for the weather conditions in past years. The results will help you decide how hot, cold, wet, or windy it might be!

Date:

Astronomy

Feb. 10, 2013 Rise Set
Actual Time 8:48 AM AKST 5:36 PM AKST
Civil Twilight 8:03 AM AKST 6:21 PM AKST
Nautical Twilight 7:13 AM AKST 7:11 PM AKST
Astronomical Twilight 6:25 AM AKST 7:59 PM AKST
Moon 8:20 AM AKST (2/10) 7:08 PM AKST (2/10)
Length of Visible Light 10h 18m
Length of Day
8h 48m
New Moon, 0% of the Moon is Illuminated
Feb 10
New Moon
Feb 17
First Quarter
Feb 25
Full
Mar 4
Last Quarter
Mar 11
New

Hourly Weather History & Observations

Time (AKST) Temp. Windchill Dew Point Humidity Pressure Visibility Wind Dir Wind Speed Gust Speed Precip Events Conditions
12:53 AM 36.0 °F 29.0 °F 34.0 °F 93% 29.03 in 7.0 mi SE 9.2 mph 18.4 mph 0.05 in Rain Light Rain
1:35 AM 35.6 °F - 33.8 °F 93% 29.03 in 7.0 mi Calm Calm - 0.07 in Rain Rain
1:53 AM 34.0 °F - 33.1 °F 96% 29.03 in 5.0 mi Calm Calm - 0.10 in Rain Rain
2:12 AM 33.8 °F - 33.8 °F 100% 29.03 in 6.0 mi Calm Calm - 0.02 in Snow Light Snow
2:26 AM 33.8 °F 30.8 °F 33.8 °F 100% 29.03 in 2.0 mi NNW 3.5 mph - 0.03 in Snow Light Snow
2:50 AM 33.8 °F - 33.8 °F 100% 29.03 in 1.8 mi Calm Calm - 0.06 in Snow Light Snow
3:03 AM 33.8 °F - 33.8 °F 100% 29.03 in 2.5 mi Calm Calm - 0.01 in Snow Light Snow
3:17 AM 33.8 °F - 32.0 °F 93% 29.03 in 4.0 mi Calm Calm - 0.03 in Snow Light Snow
3:53 AM 34.0 °F - 33.1 °F 96% 29.03 in 5.0 mi Calm Calm - 0.11 in Rain Rain
4:53 AM 37.0 °F 29.8 °F 35.1 °F 93% 29.04 in 9.0 mi SSW 10.4 mph - 0.15 in Rain Light Rain
5:44 AM 37.4 °F 32.1 °F 35.6 °F 93% 29.08 in 10.0 mi Variable 6.9 mph - 0.06 in Rain Light Rain
5:53 AM 37.9 °F 32.7 °F 35.1 °F 89% 29.08 in 10.0 mi SSE 6.9 mph 17.3 mph 0.07 in Rain Light Rain
6:01 AM 37.4 °F 32.1 °F 33.8 °F 87% 29.09 in 10.0 mi Variable 6.9 mph - 0.00 in Rain Light Rain
6:36 AM 37.4 °F 28.9 °F 35.6 °F 93% 29.12 in 10.0 mi South 13.8 mph 24.2 mph 0.02 in Rain Light Rain
6:53 AM 37.9 °F 29.6 °F 37.0 °F 97% 29.13 in 10.0 mi South 13.8 mph 23.0 mph 0.02 in Rain Light Rain
7:11 AM 37.4 °F 28.2 °F 35.6 °F 93% 29.15 in 8.0 mi SSE 16.1 mph 27.6 mph 0.01 in Rain Light Rain
7:18 AM 37.4 °F 27.2 °F 33.8 °F 87% 29.15 in 8.0 mi SSE 19.6 mph 29.9 mph 0.01 in Rain Light Rain
7:53 AM 37.9 °F 30.0 °F 34.0 °F 86% 29.18 in 10.0 mi SSE 12.7 mph 21.9 mph 0.02 in Rain Light Rain
8:53 AM 37.9 °F 27.6 °F 32.0 °F 79% 29.23 in 10.0 mi SSE 20.7 mph 25.3 mph 0.00 in   Overcast
9:53 AM 39.0 °F 32.3 °F 33.1 °F 79% 29.28 in 10.0 mi South 10.4 mph 18.4 mph 0.00 in Rain Light Rain
11:00 AM 39.2 °F 29.0 °F 32.0 °F 75% 29.33 in 10.0 mi SSE 21.9 mph 32.2 mph N/A   Overcast
11:53 AM 37.0 °F 27.7 °F 32.0 °F 82% 29.37 in 6.0 mi SSE 16.1 mph 27.6 mph 0.01 in Rain Light Rain
12:53 PM 37.9 °F 28.2 °F 30.9 °F 76% 29.39 in 10.0 mi SSE 18.4 mph 24.2 mph 0.00 in   Overcast
1:53 PM 37.9 °F 31.5 °F 28.9 °F 70% 29.40 in 10.0 mi South 9.2 mph 20.7 mph 0.00 in   Overcast
2:11 PM 35.6 °F 27.1 °F 30.2 °F 81% 29.41 in 4.0 mi South 12.7 mph 20.7 mph 0.00 in Snow Light Snow
2:53 PM 35.1 °F 26.4 °F 32.0 °F 89% 29.42 in 3.0 mi SSE 12.7 mph - 0.01 in Snow Light Snow
3:40 PM 35.6 °F 27.1 °F 30.2 °F 81% 29.42 in 10.0 mi SSE 12.7 mph 17.3 mph 0.00 in   Overcast
3:53 PM 36.0 °F 28.0 °F 30.9 °F 82% 29.42 in 10.0 mi SSE 11.5 mph - 0.00 in   Overcast
4:13 PM 35.6 °F 28.6 °F 32.0 °F 87% 29.42 in 2.5 mi South 9.2 mph 19.6 mph 0.01 in Snow Light Snow
4:35 PM 35.6 °F 27.5 °F 33.8 °F 93% 29.43 in 2.5 mi SSE 11.5 mph 17.3 mph 0.02 in Snow Light Snow
4:45 PM 33.8 °F 27.0 °F 33.8 °F 100% 29.43 in 1.2 mi South 8.1 mph - 0.02 in Snow Light Snow
4:53 PM 34.0 °F 28.8 °F 33.1 °F 96% 29.43 in 1.0 mi South 5.8 mph 19.6 mph 0.02 in Snow Light Snow
4:57 PM 33.8 °F 27.7 °F 33.8 °F 100% 29.43 in 1.2 mi South 6.9 mph 19.6 mph 0.00 in Snow Light Snow
5:01 PM 33.8 °F 27.7 °F 33.8 °F 100% 29.43 in 3.0 mi South 6.9 mph - 0.01 in Snow Light Snow
5:08 PM 35.6 °F 28.6 °F 33.8 °F 93% 29.43 in 5.0 mi South 9.2 mph - 0.01 in Snow Light Snow
5:14 PM 33.8 °F 29.6 °F 33.8 °F 100% 29.43 in 1.8 mi South 4.6 mph - 0.02 in Snow Light Snow
5:32 PM 33.8 °F 24.8 °F 33.8 °F 100% 29.43 in 7.0 mi South 12.7 mph - 0.03 in Snow Light Snow
5:45 PM 35.6 °F 27.1 °F 33.8 °F 93% 29.44 in 4.0 mi South 12.7 mph 19.6 mph 0.04 in Snow Light Snow
5:53 PM 34.0 °F 24.2 °F 33.1 °F 96% 29.44 in 4.0 mi South 15.0 mph 19.6 mph 0.04 in Snow Light Snow
6:06 PM 33.8 °F 24.3 °F 32.0 °F 93% 29.44 in 2.5 mi SSW 13.8 mph - 0.00 in Snow Light Snow
6:22 PM 33.8 °F 25.3 °F 32.0 °F 93% 29.44 in 3.0 mi SSW 11.5 mph - 0.01 in Snow Light Snow
6:53 PM 34.0 °F 29.8 °F 33.1 °F 96% 29.44 in 4.0 mi Variable 4.6 mph - 0.02 in Snow Light Snow
7:53 PM 34.0 °F 29.8 °F 33.1 °F 96% 29.45 in 3.0 mi SSW 4.6 mph - 0.01 in Snow Light Snow
8:07 PM 33.8 °F 30.8 °F 32.0 °F 93% 29.45 in 2.5 mi South 3.5 mph - 0.01 in Snow Light Snow
8:35 PM 33.8 °F - 32.0 °F 93% 29.45 in 1.5 mi Calm Calm - 0.01 in Snow Light Snow
8:51 PM 33.8 °F - 32.0 °F 93% 29.45 in 1.2 mi Calm Calm - 0.01 in Snow Light Snow
8:53 PM 33.1 °F - 32.0 °F 96% 29.45 in 1.2 mi Calm Calm - 0.01 in Snow Light Snow
9:23 PM 33.8 °F - 32.0 °F 93% 29.45 in 1.0 mi Calm Calm - 0.00 in Snow Light Snow
9:42 PM 33.8 °F - 32.0 °F 93% 29.45 in 1.5 mi Calm Calm - 0.00 in Snow Light Snow
9:47 PM 33.8 °F - 32.0 °F 93% 29.45 in 2.0 mi Calm Calm - 0.00 in Snow Light Snow
9:53 PM 33.1 °F - 32.0 °F 96% 29.46 in 2.5 mi Calm Calm - 0.00 in Snow Light Snow
10:13 PM 33.8 °F - 32.0 °F 93% 29.46 in 2.5 mi Calm Calm - 0.00 in Snow Light Snow
10:34 PM 33.8 °F - 33.8 °F 100% 29.46 in 4.0 mi Calm Calm - 0.00 in Snow Light Snow
10:48 PM 33.8 °F - 33.8 °F 100% 29.46 in 1.8 mi Calm Calm - 0.00 in Snow Light Snow
10:53 PM 33.1 °F - 33.1 °F 100% 29.46 in 1.8 mi Calm Calm - 0.00 in Snow Light Snow
11:14 PM 33.8 °F - 32.0 °F 93% 29.46 in 1.0 mi Calm Calm - 0.00 in Snow Light Snow
11:37 PM 33.8 °F - 32.0 °F 93% 29.47 in 1.0 mi Calm Calm - 0.00 in Snow Light Snow
11:44 PM 33.8 °F - 33.8 °F 100% 29.47 in 1.0 mi Calm Calm - 0.00 in Snow Light Snow
11:53 PM 33.1 °F - 33.1 °F 100% 29.47 in 1.0 mi Calm Calm - 0.00 in Snow Light Snow